Location: B?dimalle
(17.1788°N, 80.5377°E)
Time: 09:05:19
(UTC+00:00)

Tiros 1 despin weight - Visible Passes

Search period start: 19 February 2026 00:00
Search period end: 01 March 2026 00:00
Orbit: 557 x 594 km, 48.2° (Epoch: 19 February)

Date Brightness Start Highest point End Pass type
(mag) Time Alt. Az. Time Alt. Az. Time Alt. Az.
23 Feb ? 14:20:10 10° NNW 14:20:52 13° N 14:20:52 13° N visible
24 Feb ? 14:22:06 10° NNW 14:24:02 24° NNW 14:24:02 24° NNW visible
25 Feb ? 14:24:21 10° NW 14:27:25 48° NW 14:27:25 48° NW visible
26 Feb ? 14:26:55 10° NW 14:30:57 47° SW 14:31:00 47° SW visible
27 Feb ? 14:29:53 10° WNW 14:33:18 24° SW 14:34:49 20° SSW visible
28 Feb ? 14:33:46 10° W 14:35:38 13° SW 14:37:31 10° SSW visible
